[[{"header":{"parameterUnit":"m.s-1","parameterCategory":2,"la1":30.2991,"la2":30.254,"lo1":-89.0895,"lo2":-89.0444,"dy":0.0017,"dx":0.0017,"nx":28,"ny":28,"refTime":"2025-03-21T03:00:00:Z","depth":"0","parameterNumber":2,"parameterNumberName":"U-component_of_CURRENTS"},"data":[0,0,0,0,0,0,0,0,0,0,0,0,0,0,0,0,0,0,0,0,0,0,0,0,0,0,0,0,0,0,0,0,0,0,0,0,0,0,0,0,0,0,0,0,0,0,0,0,0,0,0,0,0,0,0,0,0,0,-0.3568,-0.3569,0,-0.3588,-0.3587,-0.3587,-0.3481,-0.3479,-0.3477,-0.3475,-0.3318,-0.3316,-0.3314,0,0,0,0,0,0,0,0,0,0,0,0,0,-0.3388,-0.3392,-0.3568,-0.3569,-0.3571,-0.3588,-0.3587,-0.3586,-0.3482,-0.3479,-0.3477,-0.3474,-0.3319,-0.3316,-0.3314,0,0,0,0,0,0,0,0,0,0,0,0,0,-0.3433,-0.3393,-0.3568,-0.3528,-0.3525,-0.3588,-0.3587,-0.3586,-0.3482,-0.3479,-0.3476,-0.3473,-0.332,-0.3317,-0.3313,-0.3354,0,0,-0.3303,-0.3301,0,0,0,0,0,0,0,0,-0.3431,-0.3439,-0.3533,-0.3531,-0.3528,-0.3538,-0.3467,-0.3503,-0.3483,-0.3488,-0.3475,-0.3472,-0.3385,-0.3376,-0.3374,-0.3347,-0.334,-0.3303,-0.3301,-0.3299,-0.3298,0,0,0,0,0,0,0,-0.3428,-0.3437,-0.3565,-0.3535,-0.3532,-0.3492,-0.3494,-0.3473,-0.3442,-0.3487,-0.3482,-0.3502,-0.338,-0.3378,-0.3369,-0.3338,-0.3303,-0.33,-0.3298,-0.3296,-0.3259,-0.326,0,0,0,0,0,0,-0.3454,-0.3435,-0.3565,-0.3567,-0.3483,-0.3499,-0.3501,-0.353,-0.3446,-0.3435,-0.3505,-0.3497,-0.3385,-0.3373,-0.3363,-0.3286,-0.3299,-0.3296,-0.3294,-0.3258,-0.3259,-0.326,0,0,0,0,0,0,-0.345,-0.3466,-0.3564,-0.3508,-0.3519,-0.3507,-0.3539,-0.3532,-0.3525,-0.3463,-0.3445,-0.3505,-0.3382,-0.3368,-0.3346,-0.3283,-0.3294,-0.3291,-0.3257,-0.3258,-0.326,-0.3209,0,0,0,0,0,0,-0.3445,-0.3464,-0.3471,-0.3511,-0.3524,-0.3605,-0.3543,-0.3535,-0.3547,-0.3537,-0.3458,-0.3441,-0.3378,-0.3352,-0.3342,-0.3279,-0.3289,-0.3255,-0.3257,-0.3259,-0.3209,-0.3208,-0.3208,0,0,0,0,0,-0.3438,-0.3443,-0.3472,-0.3486,-0.3542,-0.3608,-0.3609,-0.3581,-0.355,-0.3559,-0.3506,-0.3443,-0.3356,-0.3351,-0.334,-0.3273,-0.3254,-0.3257,-0.3259,-0.3209,-0.3208,-0.3208,0,0,0,0,0,0,-0.3332,-0.3437,-0.3466,-0.3495,-0.3562,-0.3593,-0.3579,-0.3598,-0.3569,-0.3533,-0.3472,-0.3453,-0.3398,-0.3382,-0.3379,-0.3278,-0.3289,-0.3289,-0.3255,-0.3254,-0.3253,-0.3202,-0.3286,0,0,0,0,0,-0.3335,-0.3372,-0.3478,-0.3493,-0.3529,-0.3569,-0.3584,-0.359,-0.3587,-0.357,-0.3529,-0.3471,-0.3406,-0.337,-0.3328,-0.3296,-0.3267,-0.3248,-0.3247,-0.3246,-0.3204,-0.3155,-0.3144,-0.3268,-0.3268,-0.3268,0,0,-0.329,-0.3355,-0.3369,-0.3476,-0.3504,-0.3503,-0.3563,-0.3593,-0.3553,-0.3558,-0.3473,-0.3473,-0.3406,-0.334,-0.3314,-0.3311,-0.3205,-0.3249,-0.3248,-0.3205,-0.3156,-0.3143,-0.3131,-0.327,-0.3269,-0.3269,0,0,-0.3194,-0.3292,-0.3279,-0.334,-0.3423,-0.3459,-0.3482,-0.3546,-0.3535,-0.353,-0.348,-0.346,-0.3405,-0.3322,-0.3271,-0.326,-0.3209,-0.326,-0.3191,-0.3146,-0.3133,-0.3121,-0.309,-0.3076,-0.325,-0.325,-0.325,0,-0.3123,-0.3156,-0.3282,-0.3277,-0.3309,-0.3433,-0.3416,-0.3419,-0.346,-0.3465,-0.3488,-0.3411,-0.3366,-0.3239,-0.3221,-0.324,-0.323,-0.3187,-0.3137,-0.3126,-0.3114,-0.3084,-0.3069,-0.3247,-0.3248,-0.3248,-0.3248,0,-0.3013,-0.3048,-0.3046,-0.3085,-0.3129,-0.3161,-0.3223,-0.3255,-0.3297,-0.3318,-0.3292,-0.3277,-0.3231,-0.3217,-0.3196,-0.3094,-0.3119,-0.3145,-0.3123,-0.3097,-0.307,-0.3055,-0.3244,-0.3245,-0.3246,-0.3246,0,0,-0.2849,-0.2953,-0.295,-0.2981,-0.306,-0.31,-0.3054,-0.3104,-0.3094,-0.3132,-0.3108,-0.3026,-0.3092,-0.3042,-0.3042,-0.2995,-0.2918,-0.3034,-0.3033,-0.2972,-0.283,-0.2746,-0.2723,-0.2945,-0.2942,-0.2939,-0.2848,0,-0.2736,-0.2726,-0.2794,-0.2774,-0.2802,-0.2914,-0.2878,-0.2921,-0.2984,-0.2996,-0.2999,-0.2972,-0.2995,-0.3002,-0.2951,-0.2943,-0.2874,-0.294,-0.2889,-0.2886,-0.2789,-0.2699,-0.2571,-0.2469,-0.2834,-0.2831,-0.2829,0,-0.2614,-0.2649,-0.2626,-0.2722,-0.2738,-0.2714,-0.2785,-0.2777,-0.281,-0.2861,-0.2859,-0.2894,-0.2819,-0.2869,-0.2775,-0.2829,-0.2799,-0.2791,-0.2789,-0.2701,-0.2771,-0.2553,-0.2428,-0.2423,-0.2806,-0.2808,-0.281,0,-0.2514,-0.2547,-0.2552,-0.2574,-0.2654,-0.2654,-0.2688,-0.2735,-0.2757,-0.2776,-0.2811,-0.2765,-0.2759,-0.2709,-0.2709,-0.274,-0.263,-0.2676,-0.2555,-0.2552,-0.2418,-0.2406,-0.2241,-0.2558,-0.2558,-0.2558,-0.2558,0,-0.2427,-0.2429,-0.2511,-0.2518,-0.2516,-0.2591,-0.2594,-0.2633,-0.2678,-0.2687,-0.2732,-0.2729,-0.2722,-0.2691,-0.2669,-0.2561,-0.259,-0.2488,-0.2493,-0.2403,-0.2392,-0.2366,-0.2424,-0.2555,-0.2556,-0.2556,-0.2557,0,-0.2323,-0.2383,-0.2394,-0.2461,-0.2477,-0.2472,-0.254,-0.2546,-0.2611,-0.2622,-0.2623,-0.2678,-0.2624,-0.2608,-0.2541,-0.2499,-0.2368,-0.2369,-0.2271,-0.2261,-0.2114,-0.2176,-0.2022,-0.1963,-0.2185,-0.2182,-0.2179,0,-0.2271,-0.2269,-0.2328,-0.2327,-0.2351,-0.2373,-0.2384,-0.2479,-0.2493,-0.259,-0.257,-0.2561,-0.2498,-0.2382,-0.2295,-0.2175,-0.2233,-0.2022,-0.2015,-0.2023,-0.2099,-0.2171,-0.214,-0.1844,-0.1839,-0.1835,-0.1831,0,-0.2157,-0.2178,-0.2187,-0.2191,-0.2198,-0.2219,-0.2247,-0.2271,-0.2379,-0.2402,-0.2419,-0.2382,-0.2268,-0.2088,-0.1959,-0.1895,-0.1969,-0.1929,-0.1947,-0.1786,-0.1841,-0.1816,-0.2027,-0.1794,-0.1798,-0.18,-0.1802,-0.1804,-0.2046,-0.2021,-0.2033,-0.2017,-0.2028,-0.203,-0.2021,-0.2073,-0.2093,-0.2055,-0.2137,-0.1931,-0.1933,-0.1701,-0.1651,-0.1545,-0.1649,-0.1506,-0.1575,-0.1644,-0.1574,-0.1695,-0.147,-0.1471,-0.1473,-0.1474,-0.1475,0,-0.1889,-0.1873,-0.1857,-0.1833,-0.1776,-0.1848,-0.1888,-0.1862,-0.1839,-0.1706,-0.1619,-0.1381,-0.1302,-0.1308,-0.1303,-0.1234,-0.123,-0.1239,-0.1312,-0.1291,-0.1374,-0.1344,-0.1067,-0.1067,-0.1067,-0.1067,-0.1067,-0.1067,-0.1805,-0.1726,-0.1716,-0.1568,-0.1555,-0.1477,-0.1484,-0.147,-0.1368,-0.1069,-0.0774,-0.0592,-0.0811,-0.1189,-0.1225,-0.1158,-0.1174,-0.1123,-0.1198,-0.1283,-0.1315,-0.1345,-0.1326,-0.1049,-0.105,-0.1033,-0.1034,-0.1034]},{"header":{"parameterUnit":"m.s-1","parameterCategory":2,"la1":30.2991,"la2":30.254,"lo1":-89.0895,"lo2":-89.0444,"dy":0.0017,"dx":0.0017,"nx":28,"ny":28,"refTime":"2025-03-21T03:00:00:Z","depth":"0","parameterNumber":3,"parameterNumberName":"V-component_of_CURRENTS"},"data":[0,0,0,0,0,0,0,0,0,0,0,0,0,0,0,0,0,0,0,0,0,0,0,0,0,0,0,0,0,0,0,0,0,0,0,0,0,0,0,0,0,0,0,0,0,0,0,0,0,0,0,0,0,0,0,0,0,0,-0.0048,-0.0046,0,0.0061,0.0062,0.0063,0.0102,0.0102,0.0102,0.0102,0.0253,0.0257,0.0261,0,0,0,0,0,0,0,0,0,0,0,0,0,-0.0208,-0.0206,-0.0048,-0.0046,-0.0045,0.0061,0.0062,0.0063,0.0102,0.0102,0.0102,0.0102,0.0252,0.0257,0.0262,0,0,0,0,0,0,0,0,0,0,0,0,0,-0.0125,-0.0205,-0.0048,-0.0011,-0.0007,0.006,0.0062,0.0064,0.0102,0.0102,0.0102,0.0101,0.025,0.0256,0.0262,0.0307,0,0,0.0282,0.0284,0,0,0,0,0,0,0,0,-0.013,-0.0119,-0.0018,-0.0014,-0.0008,0.0069,0.0061,0.0148,0.0102,0.0059,0.0102,0.0101,0.0197,0.0208,0.0225,0.0314,0.0321,0.0282,0.0286,0.0289,0.029,0,0,0,0,0,0,0,-0.0135,-0.0124,-0.0007,-0.0016,-0.001,0.0005,0.0016,0.0077,0.0128,0.0063,0.0066,0.0082,0.02,0.0219,0.0229,0.0323,0.0282,0.0288,0.0291,0.0294,0.0538,0.054,0,0,0,0,0,0,-0.0145,-0.0129,-0.001,-0.0003,-0.0069,0.0008,0.002,0.0043,0.0126,0.0139,0.0082,0.0083,0.0208,0.0222,0.0235,0.0297,0.0289,0.0295,0.0298,0.0535,0.0538,0.0541,0,0,0,0,0,0,-0.0149,-0.0135,-0.0015,-0.0063,-0.0046,0.0011,0.0036,0.0046,0.0068,0.0141,0.0153,0.0095,0.0209,0.0226,0.0303,0.0303,0.0297,0.0303,0.0532,0.0536,0.054,0.042,0,0,0,0,0,0,-0.0153,-0.0137,-0.0134,-0.0063,-0.0044,0.0034,0.0037,0.0048,0.0078,0.0081,0.0156,0.017,0.021,0.0293,0.0309,0.0312,0.0308,0.0528,0.0534,0.0538,0.042,0.0419,0.0418,0,0,0,0,0,-0.016,-0.0165,-0.0134,-0.0121,-0.0038,0.0035,0.0046,0.0084,0.0079,0.0099,0.015,0.0167,0.0337,0.03,0.0318,0.0322,0.0526,0.0532,0.0538,0.0421,0.042,0.0418,0,0,0,0,0,0,-0.0241,-0.0159,-0.0125,-0.0106,-0.0031,0.0042,0.0042,0.0083,0.0137,0.0125,0.0192,0.0211,0.0295,0.0338,0.0295,0.0419,0.0439,0.0449,0.0344,0.0344,0.0343,0.0234,0.0313,0,0,0,0,0,-0.0252,-0.0234,-0.0136,-0.0122,-0.0094,-0.0023,0.0004,0.0043,0.0103,0.0124,0.0188,0.0258,0.0336,0.0358,0.0447,0.0491,0.0505,0.0517,0.0516,0.0514,0.0446,0.0475,0.0466,0.0561,0.0561,0.0561,0,0,-0.0281,-0.0235,-0.0224,-0.0137,-0.0095,-0.0074,-0.0009,0.0029,0.0039,0.0134,0.0163,0.027,0.036,0.0425,0.0463,0.0449,0.0513,0.0522,0.0518,0.045,0.0479,0.0469,0.0459,0.0565,0.0564,0.0564,0,0,-0.0341,-0.0287,-0.0295,-0.0243,-0.0169,-0.0119,-0.0105,-0.0013,0.0018,0.0088,0.0162,0.0245,0.0369,0.0411,0.045,0.0496,0.053,0.0563,0.0428,0.0458,0.0447,0.0437,0.049,0.0485,0.053,0.053,0.053,0,-0.0383,-0.0366,-0.0284,-0.0281,-0.0257,-0.0147,-0.0149,-0.0103,0.0008,0.0032,0.0085,0.0258,0.0341,0.0379,0.0396,0.0479,0.0514,0.0411,0.0444,0.0435,0.0427,0.0483,0.048,0.0525,0.0526,0.0526,0.0527,0,-0.0441,-0.043,-0.0436,-0.0397,-0.0357,-0.0334,-0.0252,-0.0206,-0.0141,-0.0079,0.0016,0.014,0.0227,0.0294,0.0344,0.0351,0.0405,0.0457,0.0417,0.0408,0.0472,0.047,0.0518,0.052,0.0521,0.0523,0,0,-0.0514,-0.0483,-0.0483,-0.0484,-0.0412,-0.0382,-0.0374,-0.0311,-0.0312,-0.0191,-0.0177,-0.004,0.0039,0.0088,0.0192,0.0194,0.0202,0.0274,0.0278,0.0268,0.0281,0.039,0.04,0.0255,0.0253,0.0252,0.0361,0,-0.0576,-0.0609,-0.0567,-0.0592,-0.0595,-0.051,-0.0507,-0.0446,-0.0368,-0.032,-0.0213,-0.0136,-0.0043,0.0013,0.0028,0.018,0.0186,0.0168,0.0337,0.0341,0.0391,0.0396,0.0465,0.0573,0.036,0.036,0.036,0,-0.0632,-0.0646,-0.0687,-0.0678,-0.0672,-0.0672,-0.0638,-0.0615,-0.054,-0.0479,-0.0415,-0.0304,-0.0252,-0.0164,-0.0024,-0.0035,0.0084,0.018,0.0189,0.0304,0.0444,0.0546,0.0578,0.075,0.0357,0.0358,0.0358,0,-0.0705,-0.072,-0.0758,-0.0754,-0.0733,-0.0739,-0.0719,-0.0661,-0.0658,-0.0583,-0.0576,-0.046,-0.04,-0.0269,-0.0043,-0.0041,0.012,0.0168,0.0367,0.0379,0.0471,0.0493,0.0625,0.0219,0.0219,0.0218,0.0218,0,-0.077,-0.0797,-0.0797,-0.0817,-0.0862,-0.0814,-0.0846,-0.0807,-0.0777,-0.08,-0.067,-0.0643,-0.0433,-0.0289,-0.0098,0.0146,0.0091,0.0315,0.0396,0.0446,0.0463,0.0645,0.0703,0.0223,0.0222,0.0221,0.022,0,-0.0834,-0.0834,-0.088,-0.0889,-0.0897,-0.0925,-0.0942,-0.0978,-0.0928,-0.0961,-0.0952,-0.0792,-0.0571,-0.033,-0.0069,0.0086,0.0439,0.0413,0.0474,0.0559,0.0879,0.0927,0.1092,0.1212,0.0612,0.0615,0.0618,0,-0.0867,-0.0898,-0.0945,-0.0991,-0.0999,-0.1038,-0.1086,-0.1054,-0.1105,-0.104,-0.108,-0.0865,-0.0634,-0.0184,0.0122,0.0483,0.0604,0.0704,0.0699,0.0878,0.0993,0.1019,0.1109,0.0805,0.0809,0.0812,0.0814,0,-0.0928,-0.0943,-0.0984,-0.109,-0.1156,-0.1246,-0.1309,-0.1368,-0.1351,-0.1272,-0.1099,-0.0867,-0.0435,0.0051,0.0465,0.0663,0.0842,0.0779,0.0939,0.1109,0.1167,0.1331,0.0769,0.0843,0.084,0.0838,0.0836,0.0835,-0.0964,-0.1013,-0.1082,-0.1177,-0.1297,-0.1455,-0.1516,-0.1488,-0.1456,-0.123,-0.1019,-0.0449,0.0025,0.0675,0.0856,0.118,0.1114,0.13,0.1335,0.1339,0.1468,0.0975,0.1159,0.1158,0.1157,0.1156,0.1156,0,-0.0998,-0.1062,-0.1169,-0.1325,-0.1511,-0.153,-0.1673,-0.1622,-0.1479,-0.1013,-0.0578,0.0316,0.0797,0.1167,0.1518,0.1723,0.1745,0.1817,0.1853,0.1913,0.1466,0.149,0.1785,0.1785,0.1785,0.1784,0.1784,0.1784,-0.1017,-0.1112,-0.1173,-0.1469,-0.161,-0.1788,-0.1857,-0.1607,-0.1261,-0.0396,0.0358,0.0963,0.1402,0.1839,0.2152,0.2184,0.2361,0.2342,0.2435,0.2113,0.2066,0.2022,0.2059,0.2468,0.2469,0.2887,0.2891,0.2894]}],[{"header":{"parameterUnit":"m.s-1","parameterCategory":2,"la1":30.2991,"la2":30.254,"lo1":-89.0895,"lo2":-89.0444,"dy":0.0017,"dx":0.0017,"nx":28,"ny":28,"refTime":"2025-03-21T03:00:00:Z","depth":"2","parameterNumber":2,"parameterNumberName":"U-component_of_CURRENTS"},"data":[0,0,0,0,0,0,0,0,0,0,0,0,0,0,0,0,0,0,0,0,0,0,0,0,0,0,0,0,0,0,0,0,0,0,0,0,0,0,0,0,0,0,0,0,0,0,0,0,0,0,0,0,0,0,0,0,0,0,-0.2404,-0.2404,0,-0.2435,-0.2436,-0.2436,-0.2396,-0.2395,-0.2393,-0.2392,-0.2419,-0.2421,-0.2424,0,0,0,0,0,0,0,0,0,0,0,0,0,-0.2356,-0.2356,-0.2404,-0.2405,-0.2405,-0.2435,-0.2436,-0.2436,-0.2396,-0.2395,-0.2393,-0.2391,-0.2419,-0.2421,-0.2424,0,0,0,0,0,0,0,0,0,0,0,0,0,-0.2382,-0.2357,-0.2404,-0.2388,-0.2387,-0.2435,-0.2436,-0.2436,-0.2397,-0.2394,-0.2392,-0.239,-0.2418,-0.2421,-0.2424,-0.2491,0,0,-0.2434,-0.2436,0,0,0,0,0,0,0,0,-0.238,-0.2384,-0.239,-0.2389,-0.2388,-0.2408,-0.2429,-0.2454,-0.2397,-0.2394,-0.2392,-0.2389,-0.2416,-0.242,-0.2432,-0.2492,-0.2494,-0.2434,-0.2436,-0.2438,-0.2439,0,0,0,0,0,0,0,-0.2378,-0.2382,-0.2418,-0.239,-0.2389,-0.2394,-0.2395,-0.2434,-0.2419,-0.2394,-0.2391,-0.2394,-0.2416,-0.2429,-0.2433,-0.2494,-0.2434,-0.2437,-0.2439,-0.2441,-0.255,-0.2551,0,0,0,0,0,0,-0.2373,-0.2381,-0.2417,-0.2418,-0.2377,-0.2397,-0.2398,-0.2405,-0.2418,-0.2418,-0.2396,-0.2392,-0.2425,-0.2429,-0.2433,-0.2467,-0.2438,-0.2441,-0.2443,-0.2549,-0.2551,-0.2552,0,0,0,0,0,0,-0.2372,-0.2376,-0.2415,-0.2399,-0.2404,-0.24,-0.2408,-0.2407,-0.2417,-0.2419,-0.2418,-0.2406,-0.2423,-0.2429,-0.2454,-0.2469,-0.2442,-0.2445,-0.2548,-0.255,-0.2551,-0.2565,0,0,0,0,0,0,-0.2371,-0.2376,-0.2383,-0.2399,-0.2405,-0.2446,-0.2411,-0.2409,-0.2422,-0.2417,-0.2429,-0.2429,-0.2422,-0.2449,-0.2457,-0.2473,-0.2448,-0.2547,-0.2549,-0.2551,-0.2563,-0.2566,-0.2569,0,0,0,0,0,-0.2369,-0.2388,-0.2384,-0.2388,-0.2414,-0.2447,-0.2451,-0.244,-0.2425,-0.244,-0.2434,-0.2428,-0.2466,-0.2453,-0.2462,-0.248,-0.2546,-0.2548,-0.2551,-0.2562,-0.2566,-0.2569,0,0,0,0,0,0,-0.2367,-0.2387,-0.2381,-0.2404,-0.2424,-0.2439,-0.2452,-0.2452,-0.2464,-0.2456,-0.2449,-0.2451,-0.2473,-0.2484,-0.247,-0.2516,-0.2503,-0.2507,-0.2509,-0.2513,-0.2516,-0.2508,-0.2451,0,0,0,0,0,-0.2373,-0.2392,-0.2411,-0.2428,-0.2439,-0.245,-0.2463,-0.2463,-0.2473,-0.2475,-0.2482,-0.2488,-0.2495,-0.2507,-0.2519,-0.2562,-0.2542,-0.2577,-0.258,-0.2583,-0.2583,-0.2555,-0.2555,-0.2559,-0.2559,-0.2559,0,0,-0.2375,-0.239,-0.2398,-0.243,-0.2441,-0.2465,-0.2452,-0.2479,-0.2494,-0.2481,-0.2503,-0.2503,-0.2507,-0.2532,-0.2545,-0.2542,-0.2572,-0.2586,-0.2588,-0.2586,-0.2557,-0.2556,-0.2555,-0.256,-0.256,-0.256,0,0,-0.2388,-0.2405,-0.2421,-0.2445,-0.2472,-0.2485,-0.2495,-0.2521,-0.2524,-0.2555,-0.2533,-0.254,-0.2575,-0.2567,-0.257,-0.2608,-0.2585,-0.2618,-0.2636,-0.2609,-0.2608,-0.2606,-0.2579,-0.2575,-0.2626,-0.2626,-0.2626,0,-0.2386,-0.2408,-0.2432,-0.2458,-0.2472,-0.2494,-0.2514,-0.2536,-0.2564,-0.2568,-0.2561,-0.2578,-0.2586,-0.2595,-0.2601,-0.2614,-0.2592,-0.2618,-0.261,-0.2609,-0.2607,-0.2579,-0.2575,-0.2627,-0.2626,-0.2626,-0.2626,0,-0.2405,-0.2428,-0.2444,-0.2476,-0.2504,-0.253,-0.256,-0.2586,-0.2593,-0.2602,-0.2615,-0.2619,-0.2621,-0.2631,-0.263,-0.2631,-0.2617,-0.2609,-0.2595,-0.2607,-0.2578,-0.2573,-0.2628,-0.2628,-0.2627,-0.2627,0,0,-0.2369,-0.2441,-0.2441,-0.2458,-0.2514,-0.2534,-0.2574,-0.2602,-0.261,-0.2637,-0.2635,-0.2656,-0.265,-0.2652,-0.2651,-0.2639,-0.2614,-0.2626,-0.2624,-0.2589,-0.2549,-0.2452,-0.2438,-0.2599,-0.2599,-0.2598,-0.2532,0,-0.2364,-0.2407,-0.2448,-0.2484,-0.2504,-0.2549,-0.2579,-0.2613,-0.2633,-0.2644,-0.2647,-0.2649,-0.2661,-0.2655,-0.2648,-0.2621,-0.2602,-0.2633,-0.2552,-0.255,-0.2453,-0.2429,-0.2249,-0.2166,-0.2527,-0.2526,-0.2525,0,-0.2347,-0.2382,-0.2416,-0.2476,-0.2488,-0.2515,-0.2553,-0.2588,-0.2621,-0.2634,-0.2644,-0.2646,-0.2647,-0.2643,-0.2605,-0.2622,-0.2589,-0.2566,-0.2562,-0.2462,-0.2443,-0.2214,-0.2143,-0.2517,-0.2517,-0.2518,-0.2519,0,-0.228,-0.2348,-0.237,-0.2393,-0.2472,-0.2488,-0.2524,-0.2571,-0.2593,-0.262,-0.2627,-0.263,-0.2621,-0.2591,-0.2565,-0.2578,-0.2503,-0.2512,-0.2392,-0.2385,-0.221,-0.2188,-0.2465,-0.2465,-0.2465,-0.2465,-0.2466,0,-0.2243,-0.2256,-0.2339,-0.2351,-0.2371,-0.2443,-0.2462,-0.2502,-0.2549,-0.2558,-0.2608,-0.2599,-0.2606,-0.2575,-0.2548,-0.2447,-0.2486,-0.2379,-0.2353,-0.2211,-0.2191,-0.2483,-0.2486,-0.2463,-0.2463,-0.2464,-0.2464,0,-0.2154,-0.2214,-0.224,-0.2318,-0.2338,-0.2347,-0.2423,-0.2435,-0.2501,-0.251,-0.2517,-0.2563,-0.2512,-0.2502,-0.2443,-0.2405,-0.2332,-0.2285,-0.212,-0.2074,-0.2238,-0.2243,-0.2137,-0.2133,-0.213,-0.2127,-0.2124,0,-0.2109,-0.2115,-0.2189,-0.2197,-0.2227,-0.2264,-0.2285,-0.2381,-0.2403,-0.2471,-0.2459,-0.2445,-0.2383,-0.2279,-0.2196,-0.2097,-0.2209,-0.1906,-0.1896,-0.2215,-0.2201,-0.2212,-0.2221,-0.1675,-0.1669,-0.1664,-0.166,0,-0.2013,-0.2041,-0.2062,-0.2085,-0.2106,-0.2136,-0.218,-0.2196,-0.2296,-0.2311,-0.2297,-0.2252,-0.2151,-0.1958,-0.186,-0.1794,-0.1909,-0.1802,-0.2152,-0.1791,-0.1774,-0.1763,-0.1788,-0.1617,-0.1621,-0.1625,-0.1627,-0.1629,-0.1921,-0.1911,-0.194,-0.1944,-0.1972,-0.1977,-0.1941,-0.201,-0.2018,-0.2008,-0.208,-0.1955,-0.1896,-0.1622,-0.1517,-0.145,-0.1586,-0.1537,-0.1554,-0.1576,-0.1538,-0.1517,-0.1305,-0.1307,-0.1309,-0.1311,-0.1313,0,-0.1793,-0.1795,-0.1795,-0.1795,-0.1762,-0.1827,-0.1835,-0.1772,-0.1721,-0.1763,-0.1725,-0.1499,-0.1351,-0.1304,-0.1109,-0.1066,-0.1077,-0.104,-0.106,-0.1102,-0.114,-0.1084,-0.0728,-0.0726,-0.0725,-0.0723,0,0,-0.1726,-0.1677,-0.1677,-0.1576,-0.1567,-0.1459,-0.142,-0.1358,-0.134,-0.1269,-0.1223,-0.1312,-0.1268,-0.1019,-0.0937,-0.08,-0.0952,-0.0756,-0.1221,-0.1287,-0.1323,-0.1413,-0.1371,0,0,0,0,0]},{"header":{"parameterUnit":"m.s-1","parameterCategory":2,"la1":30.2991,"la2":30.254,"lo1":-89.0895,"lo2":-89.0444,"dy":0.0017,"dx":0.0017,"nx":28,"ny":28,"refTime":"2025-03-21T03:00:00:Z","depth":"2","parameterNumber":3,"parameterNumberName":"V-component_of_CURRENTS"},"data":[0,0,0,0,0,0,0,0,0,0,0,0,0,0,0,0,0,0,0,0,0,0,0,0,0,0,0,0,0,0,0,0,0,0,0,0,0,0,0,0,0,0,0,0,0,0,0,0,0,0,0,0,0,0,0,0,0,0,-0.0351,-0.0351,0,-0.0288,-0.0287,-0.0287,-0.0229,-0.0228,-0.0227,-0.0227,-0.01,-0.0097,-0.0094,0,0,0,0,0,0,0,0,0,0,0,0,0,-0.0403,-0.0402,-0.0352,-0.0351,-0.035,-0.0288,-0.0287,-0.0286,-0.0229,-0.0228,-0.0227,-0.0226,-0.01,-0.0097,-0.0094,0,0,0,0,0,0,0,0,0,0,0,0,0,-0.0366,-0.0402,-0.0352,-0.0312,-0.0308,-0.0288,-0.0287,-0.0286,-0.0229,-0.0228,-0.0227,-0.0226,-0.0101,-0.0098,-0.0094,-0.0095,0,0,-0.0082,-0.008,0,0,0,0,0,0,0,0,-0.0368,-0.0364,-0.0319,-0.0315,-0.031,-0.0263,-0.0258,-0.0218,-0.023,-0.0261,-0.0227,-0.0225,-0.0148,-0.014,-0.0135,-0.0089,-0.0084,-0.0082,-0.0079,-0.0077,-0.0076,0,0,0,0,0,0,0,-0.037,-0.0366,-0.0328,-0.0318,-0.0313,-0.029,-0.0284,-0.0251,-0.0213,-0.0258,-0.0254,-0.0244,-0.0145,-0.0139,-0.0131,-0.0082,-0.0082,-0.0078,-0.0076,-0.0074,-0.0009,-0.001,0,0,0,0,0,0,-0.0377,-0.0369,-0.033,-0.0326,-0.0334,-0.0291,-0.0284,-0.0281,-0.0214,-0.0203,-0.0245,-0.0242,-0.0146,-0.0136,-0.0126,-0.0097,-0.0078,-0.0074,-0.0072,-0.0009,-0.001,-0.001,0,0,0,0,0,0,-0.0379,-0.0375,-0.0333,-0.0344,-0.0337,-0.0291,-0.0289,-0.0281,-0.0269,-0.0205,-0.0192,-0.0241,-0.0145,-0.0132,-0.0098,-0.0092,-0.0072,-0.0069,-0.0008,-0.0009,-0.001,-0.0055,0,0,0,0,0,0,-0.0381,-0.0376,-0.038,-0.0345,-0.0336,-0.0324,-0.0289,-0.028,-0.0264,-0.0259,-0.0197,-0.0184,-0.0143,-0.0104,-0.0094,-0.0086,-0.0066,-0.0007,-0.0009,-0.001,-0.0052,-0.0057,-0.0061,0,0,0,0,0,-0.0383,-0.0396,-0.0381,-0.0376,-0.0343,-0.0325,-0.0319,-0.0283,-0.0266,-0.0267,-0.0225,-0.0186,-0.0104,-0.0102,-0.009,-0.0081,-0.0007,-0.0008,-0.001,-0.0051,-0.0056,-0.0061,0,0,0,0,0,0,-0.0421,-0.039,-0.0373,-0.0376,-0.0353,-0.0314,-0.0313,-0.029,-0.026,-0.0253,-0.0194,-0.0179,-0.0151,-0.0116,-0.0115,-0.0068,-0.0049,-0.0048,-0.0085,-0.0089,-0.0094,-0.0083,-0.0062,0,0,0,0,0,-0.0432,-0.0433,-0.0398,-0.0401,-0.0392,-0.0355,-0.0344,-0.0321,-0.0288,-0.0274,-0.023,-0.0185,-0.015,-0.012,-0.0091,-0.0061,-0.0017,-0.0049,-0.0053,-0.0057,-0.0042,0.0018,0.0021,-0.0015,-0.0015,-0.0015,0,0,-0.0447,-0.043,-0.043,-0.0409,-0.0389,-0.038,-0.0346,-0.0335,-0.0319,-0.0264,-0.0236,-0.0205,-0.0151,-0.0121,-0.0104,-0.0085,-0.0028,-0.0059,-0.0062,-0.0045,0.0017,0.0021,0.0024,-0.0016,-0.0016,-0.0015,0,0,-0.0479,-0.0464,-0.0474,-0.0458,-0.0432,-0.0406,-0.0405,-0.037,-0.0346,-0.032,-0.0278,-0.0236,-0.0189,-0.0137,-0.0107,-0.0116,-0.0063,-0.0119,-0.0114,-0.0057,-0.0053,-0.0049,-0.0002,0.0007,-0.0108,-0.0108,-0.0108,0,-0.0498,-0.0503,-0.0475,-0.0477,-0.0466,-0.0421,-0.0426,-0.0395,-0.0351,-0.033,-0.0317,-0.0236,-0.0188,-0.0131,-0.0131,-0.012,-0.0091,-0.0098,-0.0061,-0.0055,-0.005,-0.0003,0.0007,-0.0111,-0.011,-0.011,-0.011,0,-0.0531,-0.0534,-0.054,-0.0524,-0.0509,-0.051,-0.0462,-0.0443,-0.041,-0.0371,-0.0322,-0.0259,-0.0205,-0.0187,-0.0155,-0.01,-0.0093,-0.0083,-0.0044,-0.0049,0.0,0.0012,-0.0114,-0.0113,-0.0112,-0.0112,0,0,-0.0579,-0.0568,-0.0569,-0.0572,-0.0536,-0.0531,-0.0502,-0.0463,-0.0441,-0.0386,-0.0349,-0.0273,-0.0237,-0.0201,-0.0155,-0.0091,-0.0029,-0.0073,-0.0069,-0.0021,0.0086,0.0114,0.013,-0.0019,-0.0017,-0.0016,0.0101,0,-0.0615,-0.0641,-0.0615,-0.0627,-0.0637,-0.0585,-0.0562,-0.0516,-0.0467,-0.042,-0.0331,-0.0287,-0.0242,-0.022,-0.0148,-0.0066,0.0002,-0.0061,0.008,0.0084,0.0115,0.0145,0.013,0.0236,0.0113,0.0115,0.0117,0,-0.0654,-0.0668,-0.0696,-0.0685,-0.0683,-0.0676,-0.0635,-0.0607,-0.0519,-0.048,-0.0405,-0.0342,-0.0237,-0.0207,-0.004,-0.0089,-0.0001,0.0071,0.0077,0.0134,0.0135,0.0223,0.0262,0.0137,0.0135,0.0134,0.0132,0,-0.0712,-0.072,-0.0749,-0.0746,-0.0724,-0.0721,-0.0701,-0.0631,-0.0604,-0.0516,-0.0483,-0.0363,-0.0294,-0.0172,-0.0016,-0.0032,0.0167,0.0162,0.0276,0.0278,0.0313,0.0316,0.0291,0.0291,0.029,0.029,0.029,0,-0.0763,-0.0783,-0.0783,-0.08,-0.0826,-0.0782,-0.0782,-0.0741,-0.0671,-0.0623,-0.0522,-0.0449,-0.0281,-0.0145,-0.002,0.0171,0.0168,0.0296,0.0321,0.0294,0.0293,0.0244,0.0237,0.0294,0.0293,0.0293,0.0292,0,-0.0819,-0.0819,-0.0854,-0.0855,-0.0858,-0.0876,-0.085,-0.0839,-0.0765,-0.0696,-0.0669,-0.0504,-0.0322,-0.0151,0.0066,0.0174,0.0341,0.0409,0.0363,0.0381,0.0411,0.04,0.0545,0.0547,0.0549,0.055,0.0552,0,-0.085,-0.0876,-0.091,-0.0937,-0.0942,-0.0957,-0.0962,-0.0901,-0.0868,-0.0713,-0.0673,-0.0489,-0.0332,-0.0019,0.0195,0.0419,0.0412,0.0535,0.0516,0.0433,0.0443,0.0429,0.0416,0.0538,0.0539,0.054,0.0541,0,-0.0904,-0.0917,-0.0948,-0.1013,-0.1038,-0.1051,-0.1038,-0.1021,-0.0911,-0.083,-0.0662,-0.0527,-0.0215,0.0047,0.0327,0.0455,0.0491,0.0561,0.0512,0.0468,0.0435,0.0441,0.0427,0.0549,0.0548,0.0547,0.0547,0.0547,-0.0937,-0.0978,-0.1022,-0.1077,-0.1107,-0.1107,-0.1093,-0.1046,-0.0971,-0.0803,-0.067,-0.0445,-0.0189,0.0214,0.0419,0.0599,0.0592,0.0641,0.0635,0.0629,0.06,0.0571,0.0705,0.0705,0.0705,0.0705,0.0705,0,-0.0972,-0.1016,-0.1079,-0.1122,-0.1144,-0.1147,-0.111,-0.1053,-0.0944,-0.0794,-0.0625,-0.0322,-0.0031,0.0218,0.0519,0.0698,0.0673,0.0719,0.0654,0.0646,0.0639,0.0607,0.0716,0.0716,0.0717,0.0717,0,0,-0.0991,-0.1057,-0.1091,-0.1133,-0.115,-0.1126,-0.1089,-0.0999,-0.0876,-0.0703,-0.0544,-0.0345,-0.0017,0.0193,0.0424,0.0581,0.0561,0.059,0.0567,0.0458,0.0448,0.0586,0.0528,0,0,0,0,0]}],[{"header":{"parameterUnit":"m.s-1","parameterCategory":2,"la1":30.2991,"la2":30.254,"lo1":-89.0895,"lo2":-89.0444,"dy":0.0017,"dx":0.0017,"nx":28,"ny":28,"refTime":"2025-03-21T03:00:00:Z","depth":"4","parameterNumber":2,"parameterNumberName":"U-component_of_CURRENTS"},"data":[0,0,0,0,0,0,0,0,0,0,0,0,0,0,0,0,0,0,0,0,0,0,0,0,0,0,0,0,0,0,0,0,0,0,0,0,0,0,0,0,0,0,0,0,0,0,0,0,0,0,0,0,0,0,0,0,0,0,-0.1648,-0.1649,0,-0.1713,-0.1713,-0.1714,-0.1731,-0.173,-0.173,-0.173,-0.1796,-0.1798,-0.18,0,0,0,0,0,0,0,0,0,0,0,0,0,-0.1575,-0.1576,-0.1648,-0.1649,-0.165,-0.1712,-0.1713,-0.1714,-0.1731,-0.173,-0.173,-0.173,-0.1795,-0.1797,-0.18,0,0,0,0,0,0,0,0,0,0,0,0,0,-0.1619,-0.1576,-0.1648,-0.1666,-0.1668,-0.1712,-0.1713,-0.1714,-0.1731,-0.173,-0.173,-0.1729,-0.1794,-0.1797,-0.18,-0.1831,0,0,-0.181,-0.1811,0,0,0,0,0,0,0,0,-0.1617,-0.1622,-0.1662,-0.1665,-0.1667,-0.1713,-0.1712,-0.1754,-0.1731,-0.1707,-0.173,-0.1729,-0.1769,-0.1774,-0.1787,-0.1834,-0.1837,-0.181,-0.1812,-0.1813,-0.1814,0,0,0,0,0,0,0,-0.1614,-0.162,-0.1673,-0.1663,-0.1666,-0.1683,-0.1688,-0.172,-0.174,-0.1709,-0.171,-0.1718,-0.177,-0.1784,-0.1789,-0.1838,-0.181,-0.1813,-0.1815,-0.1816,-0.1936,-0.1938,0,0,0,0,0,0,-0.1605,-0.1617,-0.1671,-0.1675,-0.1641,-0.1685,-0.1691,-0.1699,-0.174,-0.1745,-0.1719,-0.1719,-0.1779,-0.1785,-0.1791,-0.1872,-0.1813,-0.1816,-0.1818,-0.1935,-0.1937,-0.1938,0,0,0,0,0,0,-0.1604,-0.161,-0.1669,-0.1647,-0.1656,-0.1686,-0.1696,-0.17,-0.1738,-0.1747,-0.1753,-0.1753,-0.1779,-0.1787,-0.1833,-0.1872,-0.1818,-0.1821,-0.1934,-0.1936,-0.1937,-0.2006,0,0,0,0,0,0,-0.1601,-0.1609,-0.1629,-0.1647,-0.1657,-0.1709,-0.1696,-0.1702,-0.1742,-0.1744,-0.1779,-0.1782,-0.1779,-0.1829,-0.1837,-0.1876,-0.1823,-0.1932,-0.1935,-0.1937,-0.2002,-0.201,-0.2017,0,0,0,0,0,-0.1598,-0.1622,-0.1629,-0.1637,-0.1678,-0.1711,-0.1718,-0.1737,-0.1745,-0.1768,-0.1787,-0.1783,-0.1849,-0.1833,-0.1842,-0.1883,-0.1931,-0.1934,-0.1937,-0.1999,-0.2008,-0.2016,0,0,0,0,0,0,-0.1602,-0.1627,-0.1635,-0.1666,-0.1694,-0.1714,-0.1744,-0.1757,-0.1793,-0.1804,-0.1806,-0.1812,-0.1863,-0.1865,-0.1847,-0.1922,-0.1888,-0.1893,-0.1932,-0.1941,-0.1948,-0.1943,-0.1826,0,0,0,0,0,-0.1612,-0.1639,-0.166,-0.169,-0.1706,-0.1733,-0.1756,-0.1771,-0.1797,-0.1814,-0.1836,-0.1858,-0.1881,-0.1904,-0.1921,-0.1975,-0.1949,-0.2004,-0.2011,-0.2018,-0.2019,-0.2009,-0.2015,-0.1948,-0.1948,-0.1948,0,0,-0.1625,-0.1642,-0.1659,-0.1694,-0.172,-0.1754,-0.1746,-0.1792,-0.1826,-0.1816,-0.1879,-0.1889,-0.1898,-0.1946,-0.1971,-0.1957,-0.2024,-0.2021,-0.2027,-0.2024,-0.2013,-0.2019,-0.2025,-0.195,-0.195,-0.1949,0,0,-0.1651,-0.1677,-0.1705,-0.1733,-0.1775,-0.1792,-0.1812,-0.185,-0.1875,-0.193,-0.1925,-0.1958,-0.2006,-0.2014,-0.2024,-0.2086,-0.2058,-0.2099,-0.2144,-0.2136,-0.2141,-0.2145,-0.2119,-0.212,-0.2109,-0.2109,-0.2109,0,-0.1666,-0.1697,-0.1721,-0.1754,-0.1782,-0.1813,-0.1849,-0.1885,-0.1935,-0.1956,-0.1958,-0.2017,-0.2033,-0.2075,-0.2098,-0.2104,-0.2086,-0.2111,-0.2145,-0.2148,-0.2151,-0.2123,-0.2124,-0.2113,-0.2112,-0.2112,-0.2112,0,-0.17,-0.174,-0.1762,-0.181,-0.1848,-0.1888,-0.193,-0.1975,-0.2009,-0.2031,-0.2086,-0.2102,-0.213,-0.2149,-0.215,-0.2189,-0.2163,-0.2149,-0.212,-0.2162,-0.213,-0.2129,-0.2118,-0.2117,-0.2116,-0.2115,0,0,-0.1683,-0.1768,-0.1777,-0.1809,-0.188,-0.1908,-0.1979,-0.2031,-0.2066,-0.212,-0.2153,-0.2208,-0.2211,-0.2221,-0.2227,-0.2234,-0.2249,-0.2214,-0.2212,-0.2184,-0.2218,-0.2056,-0.204,-0.2242,-0.2243,-0.2243,-0.2185,0,-0.17,-0.1763,-0.1808,-0.1879,-0.1911,-0.197,-0.2024,-0.2082,-0.2124,-0.2166,-0.2194,-0.2228,-0.2241,-0.2256,-0.227,-0.2251,-0.2251,-0.2265,-0.2184,-0.2182,-0.203,-0.2035,-0.2244,-0.2185,-0.2184,-0.2184,-0.2184,0,-0.1698,-0.1745,-0.1814,-0.1899,-0.1921,-0.1975,-0.2054,-0.2109,-0.2175,-0.2205,-0.2247,-0.226,-0.2297,-0.2288,-0.2285,-0.2294,-0.2267,-0.2246,-0.2243,-0.2065,-0.2018,-0.2134,-0.2182,-0.2182,-0.2182,-0.2183,-0.2183,0,-0.1639,-0.1739,-0.1793,-0.1826,-0.1932,-0.1981,-0.2041,-0.212,-0.2158,-0.2226,-0.2246,-0.2287,-0.2298,-0.2289,-0.2263,-0.2278,-0.2225,-0.2233,-0.2058,-0.2047,-0.2182,-0.2177,-0.2215,-0.2215,-0.2216,-0.2216,-0.2216,0,-0.1605,-0.1651,-0.1777,-0.1804,-0.1872,-0.1959,-0.2027,-0.2088,-0.2162,-0.2186,-0.226,-0.2259,-0.23,-0.2277,-0.2256,-0.2137,-0.2217,-0.2053,-0.2016,-0.2211,-0.2212,-0.218,-0.2177,-0.2214,-0.2214,-0.2214,-0.2215,0,-0.1518,-0.1603,-0.1672,-0.1801,-0.1844,-0.1892,-0.2014,-0.2046,-0.2135,-0.2164,-0.2184,-0.2239,-0.2195,-0.2198,-0.216,-0.2097,-0.2019,-0.1958,-0.215,-0.2127,-0.1853,-0.1854,-0.1759,-0.1752,-0.1747,-0.1743,-0.1739,0,-0.1473,-0.1502,-0.1649,-0.1689,-0.1753,-0.1844,-0.1891,-0.2012,-0.204,-0.2122,-0.211,-0.2111,-0.2121,-0.1927,-0.1961,-0.1875,-0.1858,-0.1816,-0.1855,-0.183,-0.1805,-0.1815,-0.1823,-0.173,-0.1729,-0.1728,-0.1726,0,-0.1385,-0.1454,-0.1512,-0.1597,-0.1666,-0.173,-0.1812,-0.1818,-0.193,-0.2029,-0.1963,-0.1918,-0.1853,-0.1805,-0.1736,-0.1691,-0.1846,-0.1761,-0.1773,-0.1809,-0.1795,-0.1777,-0.1792,-0.1708,-0.171,-0.1712,-0.1713,0,-0.1317,-0.1339,-0.1424,-0.148,-0.1562,-0.1583,-0.1649,-0.1669,-0.1711,-0.181,-0.1776,-0.1775,-0.1824,-0.1706,-0.165,-0.1576,-0.1564,-0.1532,-0.1556,-0.1577,-0.1543,-0.15,-0.1275,0,0,0,0,0,-0.1239,-0.125,-0.1296,-0.1355,-0.1426,-0.1466,-0.1574,-0.164,-0.1751,-0.1651,-0.1709,-0.1636,-0.1539,-0.1548,-0.1428,-0.157,-0.1576,-0.1428,-0.1556,-0.1605,-0.1627,-0.1602,0,0,0,0,0,0,-0.119,-0.1232,-0.1252,-0.1229,-0.1232,-0.1294,-0.135,-0.1429,-0.1391,-0.15,-0.1447,-0.1528,-0.1451,-0.1556,-0.1384,-0.1385,-0.1432,-0.1442,-0.1437,-0.1593,-0.1612,-0.163,-0.1612,0,0,0,0,0]},{"header":{"parameterUnit":"m.s-1","parameterCategory":2,"la1":30.2991,"la2":30.254,"lo1":-89.0895,"lo2":-89.0444,"dy":0.0017,"dx":0.0017,"nx":28,"ny":28,"refTime":"2025-03-21T03:00:00:Z","depth":"4","parameterNumber":3,"parameterNumberName":"V-component_of_CURRENTS"},"data":[0,0,0,0,0,0,0,0,0,0,0,0,0,0,0,0,0,0,0,0,0,0,0,0,0,0,0,0,0,0,0,0,0,0,0,0,0,0,0,0,0,0,0,0,0,0,0,0,0,0,0,0,0,0,0,0,0,0,-0.0281,-0.028,0,-0.025,-0.025,-0.025,-0.0213,-0.0212,-0.0212,-0.0211,-0.0134,-0.0133,-0.0131,0,0,0,0,0,0,0,0,0,0,0,0,0,-0.0295,-0.0296,-0.0281,-0.028,-0.028,-0.025,-0.025,-0.025,-0.0213,-0.0212,-0.0211,-0.0211,-0.0134,-0.0133,-0.0131,0,0,0,0,0,0,0,0,0,0,0,0,0,-0.0281,-0.0296,-0.0281,-0.0257,-0.0255,-0.025,-0.025,-0.025,-0.0213,-0.0212,-0.0211,-0.021,-0.0135,-0.0133,-0.0131,-0.0138,0,0,-0.0124,-0.0123,0,0,0,0,0,0,0,0,-0.0281,-0.028,-0.0261,-0.0259,-0.0256,-0.0233,-0.0227,-0.021,-0.0214,-0.023,-0.0211,-0.021,-0.0163,-0.0158,-0.0157,-0.0134,-0.0131,-0.0124,-0.0123,-0.0122,-0.0121,0,0,0,0,0,0,0,-0.0283,-0.0281,-0.027,-0.0261,-0.0258,-0.0244,-0.0241,-0.0223,-0.0203,-0.0229,-0.0226,-0.0221,-0.0161,-0.0159,-0.0155,-0.013,-0.0124,-0.0122,-0.0121,-0.012,-0.0101,-0.0102,0,0,0,0,0,0,-0.0286,-0.0283,-0.0271,-0.0269,-0.0265,-0.0244,-0.0241,-0.0243,-0.0204,-0.0197,-0.0222,-0.0219,-0.0164,-0.0158,-0.0152,-0.0138,-0.0122,-0.012,-0.0119,-0.0101,-0.0102,-0.0102,0,0,0,0,0,0,-0.0286,-0.0285,-0.0272,-0.0273,-0.0271,-0.0245,-0.0247,-0.0243,-0.0239,-0.0199,-0.0191,-0.0223,-0.0163,-0.0155,-0.014,-0.0135,-0.0119,-0.0117,-0.01,-0.0101,-0.0102,-0.0122,0,0,0,0,0,0,-0.0287,-0.0286,-0.0293,-0.0274,-0.0271,-0.0273,-0.0248,-0.0243,-0.0237,-0.0234,-0.0197,-0.0189,-0.0161,-0.0143,-0.0138,-0.0132,-0.0115,-0.0099,-0.01,-0.0102,-0.012,-0.0123,-0.0126,0,0,0,0,0,-0.0288,-0.0302,-0.0294,-0.0293,-0.028,-0.0274,-0.0271,-0.025,-0.0239,-0.0243,-0.0218,-0.019,-0.0148,-0.0142,-0.0136,-0.0129,-0.0098,-0.01,-0.0102,-0.0119,-0.0123,-0.0126,0,0,0,0,0,0,-0.0313,-0.0299,-0.029,-0.0299,-0.0288,-0.0267,-0.0271,-0.0257,-0.0243,-0.024,-0.02,-0.0191,-0.0178,-0.0158,-0.0153,-0.0131,-0.0119,-0.012,-0.0134,-0.0138,-0.0141,-0.0125,-0.0114,0,0,0,0,0,-0.0323,-0.033,-0.0311,-0.032,-0.0317,-0.0296,-0.0293,-0.0279,-0.0261,-0.0255,-0.0228,-0.0203,-0.0182,-0.0164,-0.0149,-0.0135,-0.0092,-0.0129,-0.0132,-0.0134,-0.0119,-0.0047,-0.0041,-0.0108,-0.0108,-0.0108,0,0,-0.0335,-0.0329,-0.0332,-0.0326,-0.0317,-0.0316,-0.0292,-0.0292,-0.0284,-0.0249,-0.0236,-0.0218,-0.0185,-0.017,-0.0161,-0.0148,-0.0099,-0.0137,-0.0139,-0.0122,-0.0048,-0.0041,-0.0035,-0.0109,-0.0109,-0.0109,0,0,-0.0361,-0.0358,-0.0371,-0.0364,-0.0353,-0.0339,-0.0341,-0.0323,-0.0309,-0.03,-0.027,-0.0241,-0.0223,-0.0181,-0.0161,-0.0173,-0.0125,-0.0183,-0.0171,-0.0102,-0.0095,-0.0088,-0.0043,-0.0032,-0.0175,-0.0175,-0.0175,0,-0.0376,-0.0387,-0.0373,-0.038,-0.0376,-0.0351,-0.0358,-0.0341,-0.032,-0.0302,-0.0301,-0.0246,-0.0219,-0.0169,-0.0174,-0.0174,-0.0141,-0.0157,-0.0103,-0.0095,-0.0087,-0.0042,-0.0029,-0.0176,-0.0176,-0.0176,-0.0176,0,-0.0404,-0.0413,-0.0422,-0.0418,-0.0412,-0.0419,-0.039,-0.038,-0.0363,-0.0335,-0.0297,-0.0257,-0.0216,-0.0209,-0.0193,-0.0133,-0.013,-0.012,-0.0086,-0.0081,-0.0035,-0.0022,-0.0178,-0.0177,-0.0177,-0.0177,0,0,-0.0437,-0.0442,-0.0445,-0.045,-0.0435,-0.0435,-0.0418,-0.039,-0.0369,-0.0337,-0.0298,-0.0253,-0.0223,-0.0199,-0.0168,-0.0103,-0.003,-0.0093,-0.0089,-0.0035,0.0107,0.0066,0.0077,-0.0011,-0.0008,-0.0006,0.0111,0,-0.0464,-0.0492,-0.0479,-0.0496,-0.0507,-0.0474,-0.0459,-0.0426,-0.039,-0.0346,-0.0277,-0.024,-0.0221,-0.0202,-0.0132,-0.0061,0.0007,-0.0064,0.0084,0.0088,0.0063,0.0092,0.0002,0.0122,0.0125,0.0127,0.0129,0,-0.0492,-0.0508,-0.0538,-0.0535,-0.0535,-0.0538,-0.0504,-0.0485,-0.0408,-0.0376,-0.0308,-0.0257,-0.0164,-0.0151,0.0006,-0.0045,0.0031,0.0094,0.0101,0.0086,0.0073,0.012,0.0155,0.0153,0.0151,0.0149,0.0147,0,-0.0526,-0.0545,-0.0574,-0.0576,-0.0568,-0.057,-0.0559,-0.05,-0.0472,-0.0391,-0.0353,-0.0244,-0.0184,-0.007,0.0046,0.0032,0.022,0.0218,0.0261,0.0258,0.027,0.0262,0.035,0.035,0.035,0.035,0.0349,0,-0.0556,-0.0578,-0.0599,-0.0616,-0.0642,-0.0615,-0.0612,-0.058,-0.0511,-0.046,-0.0375,-0.0304,-0.0158,-0.0039,0.006,0.0196,0.0235,0.0279,0.0297,0.0253,0.0241,0.0279,0.0269,0.0354,0.0353,0.0352,0.0351,0,-0.0585,-0.0599,-0.0637,-0.0654,-0.0664,-0.0682,-0.0665,-0.0644,-0.058,-0.0506,-0.0478,-0.0333,-0.0185,-0.0045,0.0148,0.0209,0.0342,0.0384,0.0317,0.0326,0.0332,0.0319,0.0449,0.0449,0.0449,0.0449,0.0449,0,-0.0599,-0.0626,-0.0679,-0.0708,-0.0724,-0.0744,-0.0746,-0.0694,-0.0651,-0.0514,-0.0467,-0.0316,-0.0212,0.0027,0.0161,0.0345,0.0366,0.0425,0.0394,0.0343,0.0348,0.0335,0.0323,0.0448,0.0448,0.0448,0.0448,0,-0.0625,-0.0653,-0.0686,-0.0755,-0.0784,-0.0791,-0.078,-0.0751,-0.0654,-0.0604,-0.0441,-0.0304,-0.0137,0.003,0.0165,0.0299,0.0378,0.0424,0.0425,0.0396,0.0343,0.0345,0.0334,0.0448,0.0448,0.0448,0.0448,0,-0.0643,-0.0679,-0.0732,-0.0782,-0.0819,-0.0807,-0.0804,-0.0729,-0.0675,-0.0516,-0.0465,-0.028,-0.0169,0.001,0.0141,0.0254,0.0282,0.0309,0.0317,0.0319,0.0232,0.0142,0.0218,0,0,0,0,0,-0.0653,-0.0693,-0.075,-0.0789,-0.0818,-0.083,-0.08,-0.0772,-0.0683,-0.0577,-0.0513,-0.0355,-0.0138,-0.0037,0.007,0.0123,0.0285,0.0249,0.0315,0.0444,0.0445,0.0359,0,0,0,0,0,0,-0.066,-0.072,-0.0749,-0.0772,-0.0795,-0.0802,-0.0784,-0.0728,-0.0652,-0.0562,-0.0448,-0.0356,-0.0154,-0.0208,0.0062,0.01,0.0151,0.0358,0.036,0.0443,0.0444,0.0445,0.0357,0,0,0,0,0]}]]